Helicity
81 118 97 89 81 113 146 166 170 145 118 109 106 93 118 57 82 101 91 79 73 84 78 106 143 163 166 139 135 124 134 119 127 122 104 83 71 63 72 69 68 58 55 52
81 91 83 91 107 124 146 140 125 101 97 103 106 88 52 96 35 43 76 90 75 117 147 174 197 201 167 151 122 120 126 109 100 90 77 62 61 65 64 61 79 77 67 59
64 94 95 115 116 129 135 148 132 125 118 123 108 12 60 105 65 68 57 44 57 50 122 212 228 210 181 140 113 121 117 108 102 96 100 117 100 85 68 67 63 65 48 42
51 68 96 101 104 142 113 105 120 127 151 109 138 100 74 109 70 80 92 75 91 66 88 151 199 204 163 131 130 130 124 117 112 105 100 98 76 69 58 51 42 53 53 44
81 105 109 119 121 122 128 147 166 183 214 208 180 221 73 92 76 64 40 87 86 53 34 91 104 158 176 170 144 138 148 142 132 121 102 103 98 84 66 63 60 55 52 53
101 108 119 145 184 162 172 178 207 217 232 290 199 224 97 79 75 44 78 87 72 72 28 46 108 185 214 192 180 176 180 163 146 134 118 103 87 81 77 64 63 59 53 56
139 146 173 176 188 203 235 252 234 288 317 264 235 266 90 96 56 42 57 64 51 47 42 62 129 178 223 228 216 194 180 168 150 144 129 108 98 89 81 69 63 67 60 50
161 189 174 177 223 251 259 261 309 390 365 308 267 283 139 85 69 60 40 43 46 50 33 60 100 164 214 237 231 206 175 164 145 147 138 124 103 96 88 74 67 64 55 48
270 216 199 190 213 215 237 255 232 339 318 399 311 237 86 104 89 95 78 60 72 54 47 48 108 139 187 235 220 173 158 157 144 137 137 124 105 99 90 86 75 67 66 51
216 304 273 219 235 242 233 248 398 346 411 435 370 282 160 141 103 101 96 72 45 48 45 58 59 104 140 181 210 181 164 153 143 136 131 123 114 108 100 92 91 79 67 45
230 314 324 327 285 224 264 358 353 330 386 453 464 328 123 113 123 117 66 60 24 82 63 48 30 53 113 166 186 173 169 162 156 147 137 140 132 118 103 98 95 81 73 38
233 309 357 285 273 277 288 292 340 401 355 396 405 377 176 121 128 111 89 23 33 95 68 26 21 61 99 142 173 180 184 182 164 155 157 137 124 114 105 97 89 86 69 46
251 396 449 473 419 333 308 289 287 326 323 392 411 386 201 120 156 133 103 64 53 104 94 61 90 90 102 153 182 168 169 175 175 186 114 149 122 92 84 84 75 72 51 30
267 394 445 413 362 302 354 321 281 266 418 314 373 189 148 193 220 171 146 84 64 127 134 108 79 65 90 137 164 169 177 189 184 192 249 282 105 85 71 74 76 54 7 2
358 402 327 290 267 255 285 310 346 355 252 338 154 221 159 187 180 129 68 96 139 157 155 121 90 66 109 149 184 219 253 210 176 179 174 165 116 101 103 94 89 21 24 32
219 305 257 305 228 199 180 218 251 229 209 239 180 148 154 161 138 100 93 103 131 155 111 104 107 115 128 148 174 179 207 187 199 218 221 184 122 111 95 80 50 49 59 52
275 286 280 278 202 211 303 251 253 227 229 207 176 115 116 112 109 114 106 96 114 150 128 110 90 100 139 163 170 184 222 212 182 191 224 201 131 90 70 61 36 53 57 47
293 264 276 354 287 368 237 197 148 105 50 126 123 95 137 124 125 130 111 95 127 138 121 121 119 96 105 179 209 240 252 247 193 215 183 129 127 95 98 57 55 55 49 39
239 201 277 333 311 254 172 205 135 163 129 136 85 109 150 160 147 108 104 118 115 110 90 78 76 74 102 192 240 252 349 207 208 157 150 171 143 85 62 77 62 50 44 32
167 158 215 259 320 314 244 187 199 191 188 92 105 117 143 138 174 95 94 102 117 117 103 107 107 86 100 171 191 202 198 207 214 131 147 195 112 83 82 69 49 38 32 15
206 230 194 200 244 262 181 92 161 155 93 47 57 100 132 124 96 74 102 126 111 118 135 96 80 98 131 123 174 249 291 243 215 158 169 133 81 88 67 60 48 39 21 6
232 189 251 213 193 175 201 236 149 107 75 72 94 108 98 80 93 91 118 143 139 146 148 111 81 90 92 123 231 280 204 151 156 135 133 82 83 76 64 53 49 35 10 5
229 258 196 166 154 184 69 144 113 130 130 120 131 81 63 100 88 95 113 124 136 139 150 120 89 93 104 105 141 162 127 146 153 115 108 91 83 60 54 51 34 20 10 15
125 136 164 204 196 202 119 125 155 155 150 157 146 121 111 115 129 157 164 158 161 153 161 129 99 99 105 118 143 129 123 113 76 53 59 70 64 63 61 58 43 32 24 19
143 185 191 234 209 152 114 122 150 163 198 217 202 152 149 159 167 179 172 170 164 159 163 145 128 108 107 104 108 124 112 93 83 69 58 65 75 65 60 54 43 45 35 36
267 294 281 217 118 144 93 114 164 194 197 221 237 236 202 194 210 201 190 172 144 129 124 129 115 100 102 111 117 113 106 103 94 82 75 66 60 54 59 61 59 41 26 21
Wind_Speed
43 44 46 43 47 47 50 52 54 49 48 48 50 41 32 62 48 46 45 40 37 37 35 24 17 13 10 8 8 9 11 12 11 13 16 20 22 23 25 27 28 30 31 33
46 46 41 44 48 51 51 57 58 51 40 51 58 54 53 46 49 51 56 57 50 43 31 20 15 12 10 8 6 7 9 9 13 16 21 24 21 25 26 28 29 31 32 34
48 44 44 49 52 55 53 57 59 58 58 50 58 49 37 46 47 47 53 56 57 43 26 18 15 14 11 9 9 7 6 9 16 21 21 22 24 26 29 31 31 32 31 32
43 44 49 53 54 51 61 49 55 63 70 70 60 63 49 47 43 55 64 67 68 56 28 11 12 15 13 10 9 10 10 11 19 20 25 24 30 32 33 31 31 32 33 34
49 51 53 55 48 43 52 52 57 59 61 64 57 55 40 51 44 60 68 69 68 60 33 9 11 12 11 9 9 9 12 15 22 27 27 28 30 31 31 32 33 35 35 36
47 46 47 47 47 45 48 52 56 55 55 68 49 48 47 43 50 63 64 66 66 63 37 15 2 8 12 11 9 9 11 16 19 22 28 29 31 29 32 36 37 37 37 38
56 51 46 42 49 46 47 57 71 75 70 66 44 53 42 46 50 53 64 65 63 59 41 19 5 6 10 10 9 10 10 14 17 23 27 30 30 32 32 35 36 37 38 40
63 67 47 43 44 48 49 49 57 78 75 69 49 57 43 42 47 49 53 57 58 57 45 26 15 11 12 12 11 10 11 13 13 19 24 27 29 32 32 33 36 38 39 40
55 58 44 44 44 46 50 55 44 56 57 69 53 45 43 42 44 48 51 53 57 57 49 37 27 19 12 14 13 11 10 14 16 18 20 26 29 31 33 35 37 39 40 44
52 65 50 47 43 47 46 36 58 51 71 75 61 59 48 45 40 45 51 59 59 55 48 41 33 24 14 11 13 10 11 15 18 18 20 22 26 30 32 33 36 38 41 47
50 55 58 46 47 50 50 55 47 46 48 68 80 61 37 42 41 51 58 51 51 49 45 42 37 29 19 9 11 10 9 14 18 20 21 21 23 27 30 35 37 38 42 48
51 58 67 62 52 50 50 50 42 57 62 54 62 71 43 47 52 54 49 47 46 46 45 46 45 33 21 11 10 11 12 15 19 21 21 22 22 24 29 33 35 37 42 46
49 59 79 73 59 51 57 47 42 44 49 61 71 70 42 47 53 52 53 48 48 47 50 47 39 31 22 15 13 13 14 16 18 20 20 22 27 27 28 32 34 37 42 47
48 65 75 88 77 64 67 51 42 46 67 70 70 74 59 65 67 63 59 63 58 47 43 42 34 28 20 14 15 15 16 17 17 18 24 26 24 28 28 32 35 39 43 46
54 79 72 74 73 74 74 69 56 60 59 70 78 69 71 77 74 71 74 72 56 44 39 32 29 27 21 19 17 17 18 18 20 19 18 24 28 29 30 34 39 40 40 46
52 82 74 92 76 73 86 75 68 64 65 69 69 80 71 80 72 62 64 71 54 40 29 31 29 27 23 20 19 16 12 13 18 20 22 22 21 28 33 37 38 39 41 46
66 73 81 104 77 80 99 82 70 67 59 56 67 60 71 72 63 60 65 59 49 43 41 41 38 31 27 22 19 16 16 14 14 18 22 25 28 30 34 36 37 38 42 46
71 68 69 87 77 109 81 57 53 52 52 49 57 61 60 60 58 53 52 52 51 48 49 48 47 44 35 27 23 21 15 10 12 20 23 28 31 34 35 33 36 39 42 47
58 66 78 90 92 89 85 59 56 57 66 58 56 60 59 53 48 50 47 46 47 48 49 50 51 49 42 26 21 18 17 12 13 19 23 25 24 29 31 33 35 38 42 48
51 57 70 74 87 94 71 47 44 43 74 57 50 49 44 41 58 53 46 45 45 44 46 49 52 50 35 24 13 10 13 16 14 13 16 20 23 28 31 33 35 37 43 48
68 65 75 79 80 67 47 45 38 63 74 42 42 41 35 46 47 45 43 43 42 41 43 42 42 42 37 24 15 13 12 15 12 13 17 22 25 26 27 31 34 39 44 48
66 64 66 63 75 85 44 38 50 49 42 40 39 38 41 45 44 41 37 37 39 39 39 40 42 42 36 31 19 11 6 9 14 15 21 23 26 26 28 30 37 42 44 48
63 52 54 47 54 45 26 42 42 40 44 42 39 37 37 36 37 33 33 32 35 37 39 39 37 35 33 27 16 14 17 13 15 22 29 27 28 30 30 35 39 42 44 48
47 40 51 52 58 55 47 45 44 40 43 38 35 34 30 34 33 32 33 34 35 35 35 35 34 33 31 28 26 21 19 27 31 33 30 31 34 37 39 42 43 45 47 48
52 41 50 59 58 56 53 47 43 39 38 35 35 34 30 31 30 31 32 34 35 36 37 39 39 38 36 35 32 31 34 35 33 32 38 42 44 46 47 48 49 48 48 46
56 57 54 65 51 52 57 50 37 35 36 36 33 32 33 31 30 31 32 33 35 38 40 42 44 46 46 44 44 43 42 42 42 44 44 47 49 52 53 54 56 51 49 48
Wind_Direction
2 358 354 358 354 353 348 345 342 345 347 346 340 336 316 335 335 334 327 316 307 308 308 303 296 293 302 319 333 338 338 338 343 335 326 325 325 331 333 332 331 328 327 327
351 348 355 354 350 347 347 342 342 348 356 347 338 335 340 353 350 346 340 334 327 312 299 287 265 258 256 280 297 313 320 323 319 321 316 313 317 317 321 324 328 328 329 326
344 347 348 345 343 341 342 339 340 340 343 346 343 340 352 348 347 349 347 345 338 325 306 268 236 235 246 260 276 284 295 299 301 306 311 313 312 313 312 314 320 325 331 334
344 344 342 340 340 342 338 346 341 337 337 335 346 334 336 344 348 345 340 341 341 339 329 290 221 208 223 255 291 298 299 302 297 299 300 301 300 301 305 311 316 321 327 329
336 336 336 336 342 347 340 343 339 337 335 335 339 335 347 340 343 340 338 339 343 347 350 341 193 214 248 261 280 297 303 304 295 293 296 298 301 303 307 310 313 316 321 325
330 335 336 336 340 343 342 341 340 341 339 331 341 342 342 344 340 335 339 342 344 347 356 16 351 254 258 266 275 289 299 306 303 300 296 297 296 304 304 305 309 312 316 321
327 328 333 336 334 342 345 342 333 331 333 332 345 337 331 334 336 336 336 340 342 347 355 4 9 245 241 244 261 283 295 305 308 300 296 295 299 301 306 307 310 312 316 319
324 324 333 336 335 335 339 339 331 324 326 327 334 327 339 339 337 339 340 342 346 349 355 357 338 299 255 245 249 271 291 305 314 308 301 300 299 300 306 309 310 313 317 320
323 323 332 333 333 335 336 331 337 326 325 323 328 331 329 330 331 336 339 343 344 346 349 351 337 319 280 245 240 254 286 306 312 312 313 303 299 300 302 304 307 311 316 318
321 317 320 323 328 330 327 334 325 327 321 320 326 327 323 332 334 334 336 335 339 343 347 345 341 332 311 255 240 255 286 302 309 318 317 310 305 302 304 309 311 312 316 317
320 313 318 322 319 319 324 319 320 320 316 317 320 324 335 333 334 330 330 334 340 344 349 348 344 338 331 286 238 254 281 302 309 317 317 315 312 309 309 309 311 313 318 320
312 314 310 310 321 322 318 311 306 308 312 310 312 308 321 319 321 324 326 330 334 336 337 335 329 327 325 301 266 265 285 299 309 314 319 319 315 317 315 315 316 320 324 325
313 309 310 314 317 321 316 313 306 308 308 302 306 313 329 324 321 322 320 322 325 325 325 328 330 328 319 300 277 277 289 297 303 312 309 316 312 312 316 318 319 321 325 327
306 301 299 299 310 318 314 311 305 298 303 302 294 299 303 309 311 313 314 314 315 315 318 323 325 327 322 307 291 290 294 297 302 307 306 309 308 313 319 321 320 320 322 328
301 297 299 299 302 304 302 301 298 294 292 295 300 298 303 308 309 311 311 311 309 305 308 314 318 320 315 306 296 296 302 299 300 309 306 301 305 312 318 319 317 321 326 328
299 300 303 301 302 300 297 295 293 289 290 290 290 297 303 307 312 314 314 315 314 305 298 308 312 312 305 300 298 297 293 301 304 299 298 307 321 314 313 315 319 323 327 331
300 299 300 298 305 304 298 296 290 292 290 290 293 297 308 310 314 316 318 320 319 316 310 312 312 307 300 290 285 275 282 286 284 291 295 297 304 314 310 314 319 326 330 333
294 299 301 300 305 298 305 310 301 293 294 293 298 303 310 313 315 318 322 322 321 318 313 312 311 309 304 296 286 282 276 273 272 288 293 297 301 302 304 312 318 327 334 337
281 289 293 293 294 298 299 303 304 301 302 301 299 305 310 315 317 317 323 325 324 323 320 317 313 308 303 296 287 270 263 244 281 289 290 291 301 305 305 311 320 327 337 333
290 283 284 290 294 297 307 311 311 314 302 309 309 311 315 320 313 319 324 325 326 329 327 325 321 316 311 301 284 277 242 254 275 288 297 297 300 299 305 314 322 333 332 330
296 292 283 285 289 297 301 311 316 306 309 319 319 319 321 318 319 325 326 325 327 329 328 332 334 330 326 318 299 286 265 268 281 295 303 300 294 303 314 321 329 328 326 326
293 293 292 292 292 295 307 307 300 313 322 322 320 318 319 319 322 324 328 329 328 327 325 327 328 327 331 328 318 309 295 284 291 299 303 297 296 307 315 321 318 318 320 326
287 286 296 292 299 312 309 310 310 313 316 316 315 317 319 321 323 323 325 328 327 327 325 326 329 331 331 321 334 316 299 303 304 304 298 293 296 302 310 309 310 313 320 327
296 298 296 300 300 297 301 305 311 310 314 317 317 319 320 321 322 320 322 322 323 325 323 325 327 325 323 318 311 305 301 295 296 301 292 295 295 295 296 298 302 307 316 323
291 297 297 298 301 303 305 304 304 306 310 311 315 316 316 320 317 318 318 319 321 319 315 313 312 308 306 307 306 302 298 295 295 294 287 288 288 289 292 294 297 303 311 321
285 287 289 295 303 304 306 310 304 301 303 306 308 311 314 315 313 316 316 318 318 314 310 307 304 299 297 299 296 296 295 294 290 288 289 288 288 287 290 292 293 301 307 315